Time,TemperatureF,DewpointF,PressureIn,WindDirection,WindDirectionDegrees,WindSpeedMPH,WindSpeedGustMPH,Humidity,HourlyPrecipIn,Conditions,Clouds,dailyrainin,SoftwareType,DateUTC
2013-08-11 00:01:00,77.0,68.9,29.95,SSE,163,2.0,3.0,76,0.00,,SKC,0.02,VWS V14.01,2013-08-11 05:01:00,
2013-08-11 00:06:00,77.0,68.9,29.95,SSE,163,1.0,2.0,76,0.00,,SKC,0.00,VWS V14.01,2013-08-11 05:06:00,
2013-08-11 00:11:00,77.0,68.9,29.95,SSE,163,3.0,3.0,76,0.00,,SKC,0.00,VWS V14.01,2013-08-11 05:11:00,
2013-08-11 00:16:00,76.9,68.8,29.95,SSE,163,1.0,1.0,76,0.00,,SKC,0.00,VWS V14.01,2013-08-11 05:16:00,
2013-08-11 00:21:00,76.9,68.8,29.94,SSE,163,0.0,0.0,76,0.00,,SKC,0.00,VWS V14.01,2013-08-11 05:21:00,
2013-08-11 00:26:00,76.8,68.7,29.94,SSE,163,0.0,1.0,76,0.00,,SKC,0.00,VWS V14.01,2013-08-11 05:26:00,
2013-08-11 00:31:00,76.7,68.6,29.94,SSE,163,0.0,0.0,76,0.00,,SKC,0.00,VWS V14.01,2013-08-11 05:31:00,
2013-08-11 00:36:00,76.6,68.5,29.94,SSE,163,0.0,1.0,76,0.00,,SKC,0.00,VWS V14.01,2013-08-11 05:36:00,
2013-08-11 00:42:00,76.5,68.8,29.94,SSE,163,0.0,2.0,77,0.00,,SKC,0.00,VWS V14.01,2013-08-11 05:42:00,
2013-08-11 00:47:00,76.7,68.6,29.95,SSE,163,0.0,0.0,76,0.00,,SKC,0.00,VWS V14.01,2013-08-11 05:47:00,
2013-08-11 00:52:00,76.6,68.5,29.94,SSE,163,0.0,0.0,76,0.00,,SKC,0.00,VWS V14.01,2013-08-11 05:52:00,
2013-08-11 00:57:00,76.6,68.5,29.94,SSE,163,0.0,0.0,76,0.00,,SKC,0.00,VWS V14.01,2013-08-11 05:57:00,
2013-08-11 01:02:00,76.4,68.3,29.95,SSE,163,0.0,0.0,76,0.00,,SKC,0.00,VWS V14.01,2013-08-11 06:02:00,
2013-08-11 01:07:00,76.2,68.5,29.95,SSE,163,0.0,0.0,77,0.00,,SKC,0.00,VWS V14.01,2013-08-11 06:07:00,
2013-08-11 01:12:00,75.9,68.2,29.94,SSE,163,0.0,0.0,77,0.00,,SKC,0.00,VWS V14.01,2013-08-11 06:12:00,
2013-08-11 01:17:00,75.7,68.0,29.94,SSE,163,0.0,0.0,77,0.00,,SKC,0.00,VWS V14.01,2013-08-11 06:17:00,
2013-08-11 01:22:00,75.4,68.1,29.94,SSE,163,0.0,0.0,78,0.00,,SKC,0.00,VWS V14.01,2013-08-11 06:22:00,
2013-08-11 01:27:00,75.0,67.7,29.94,SSE,163,1.0,1.0,78,0.00,,SKC,0.00,VWS V14.01,2013-08-11 06:27:00,
2013-08-11 01:32:00,74.9,67.6,29.94,SSE,163,0.0,0.0,78,0.00,,SKC,0.00,VWS V14.01,2013-08-11 06:32:00,
2013-08-11 01:37:00,75.0,67.7,29.94,SSE,163,0.0,0.0,78,0.00,,SKC,0.00,VWS V14.01,2013-08-11 06:37:00,
2013-08-11 01:42:00,74.8,67.5,29.94,SSE,163,0.0,0.0,78,0.00,,SKC,0.00,VWS V14.01,2013-08-11 06:42:00,
2013-08-11 01:47:00,74.8,67.5,29.94,SSE,163,0.0,0.0,78,0.00,,SKC,0.00,VWS V14.01,2013-08-11 06:47:00,
2013-08-11 01:53:00,74.7,67.4,29.94,SSE,163,0.0,0.0,78,0.00,,SKC,0.00,VWS V14.01,2013-08-11 06:53:00,
2013-08-11 01:58:00,74.7,67.4,29.94,SSE,163,0.0,0.0,78,0.00,,SKC,0.00,VWS V14.01,2013-08-11 06:58:00,
2013-08-11 02:03:00,74.6,67.3,29.94,SSE,163,0.0,0.0,78,0.00,,SKC,0.00,VWS V14.01,2013-08-11 07:03:00,
2013-08-11 02:08:00,74.5,67.2,29.94,SSE,163,0.0,0.0,78,0.00,,SKC,0.00,VWS V14.01,2013-08-11 07:08:00,
2013-08-11 02:13:00,74.4,67.1,29.94,SSE,163,0.0,0.0,78,0.00,,SKC,0.00,VWS V14.01,2013-08-11 07:13:00,
2013-08-11 02:18:00,74.3,67.0,29.94,SSE,163,0.0,0.0,78,0.00,,SKC,0.00,VWS V14.01,2013-08-11 07:18:00,
2013-08-11 02:23:00,74.3,67.0,29.95,SSE,163,0.0,0.0,78,0.00,,SKC,0.00,VWS V14.01,2013-08-11 07:23:00,
2013-08-11 02:28:00,74.4,67.1,29.94,SSE,163,0.0,0.0,78,0.00,,SKC,0.00,VWS V14.01,2013-08-11 07:28:00,
2013-08-11 02:33:00,74.4,67.1,29.95,SSE,163,0.0,0.0,78,0.00,,SKC,0.00,VWS V14.01,2013-08-11 07:33:00,
2013-08-11 02:38:00,74.3,67.0,29.95,SSE,163,0.0,0.0,78,0.00,,SKC,0.00,VWS V14.01,2013-08-11 07:38:00,
2013-08-11 02:43:00,74.2,66.9,29.95,SSE,163,0.0,0.0,78,0.00,,SKC,0.00,VWS V14.01,2013-08-11 07:43:00,
2013-08-11 02:48:00,74.1,66.8,29.95,SSE,163,0.0,0.0,78,0.00,,SKC,0.00,VWS V14.01,2013-08-11 07:48:00,
2013-08-11 02:53:00,73.7,66.8,29.95,SSE,163,0.0,0.0,79,0.00,,SKC,0.00,VWS V14.01,2013-08-11 07:53:00,
2013-08-11 02:58:00,73.1,66.6,29.95,SSE,163,0.0,0.0,80,0.00,,SKC,0.00,VWS V14.01,2013-08-11 07:58:00,
2013-08-11 03:03:00,72.7,66.5,29.95,SSE,163,0.0,0.0,81,0.00,,SKC,0.00,VWS V14.01,2013-08-11 08:03:00,
2013-08-11 03:08:00,72.4,66.2,29.95,SSE,163,0.0,0.0,81,0.00,,SKC,0.00,VWS V14.01,2013-08-11 08:08:00,
2013-08-11 03:13:00,72.3,66.5,29.95,SSE,163,0.0,0.0,82,0.00,,SKC,0.00,VWS V14.01,2013-08-11 08:13:00,
2013-08-11 03:18:00,72.3,66.5,29.95,SSE,163,0.0,0.0,82,0.00,,SKC,0.00,VWS V14.01,2013-08-11 08:18:00,
2013-08-11 03:24:00,72.2,66.4,29.95,SSE,163,0.0,0.0,82,0.00,,SKC,0.00,VWS V14.01,2013-08-11 08:24:00,
2013-08-11 03:29:00,72.2,66.4,29.95,SSE,163,0.0,0.0,82,0.00,,SKC,0.00,VWS V14.01,2013-08-11 08:29:00,
2013-08-11 03:34:00,72.1,66.3,29.95,SSE,163,0.0,0.0,82,0.00,,SKC,0.00,VWS V14.01,2013-08-11 08:34:00,
2013-08-11 03:39:00,71.9,66.1,29.95,SSE,163,0.0,0.0,82,0.00,,SKC,0.00,VWS V14.01,2013-08-11 08:39:00,
2013-08-11 03:44:00,71.7,65.9,29.95,SSE,163,0.0,0.0,82,0.00,,SKC,0.00,VWS V14.01,2013-08-11 08:44:00,
2013-08-11 03:49:00,71.5,66.1,29.95,SSE,163,0.0,0.0,83,0.00,,SKC,0.00,VWS V14.01,2013-08-11 08:49:00,
2013-08-11 03:54:00,71.5,66.1,29.95,SSE,163,0.0,0.0,83,0.00,,SKC,0.00,VWS V14.01,2013-08-11 08:54:00,
2013-08-11 03:59:00,71.5,66.1,29.95,SSE,163,0.0,0.0,83,0.00,,SKC,0.00,VWS V14.01,2013-08-11 08:59:00,
2013-08-11 04:04:00,71.5,66.4,29.95,SSE,163,0.0,0.0,84,0.00,,SKC,0.00,VWS V14.01,2013-08-11 09:04:00,
2013-08-11 04:09:00,71.5,66.1,29.94,SSE,163,0.0,0.0,83,0.00,,SKC,0.00,VWS V14.01,2013-08-11 09:09:00,
2013-08-11 04:14:00,71.3,65.9,29.95,SSE,163,0.0,0.0,83,0.00,,SKC,0.00,VWS V14.01,2013-08-11 09:14:00,
2013-08-11 04:19:00,71.2,65.8,29.95,SSE,163,0.0,0.0,83,0.00,,SKC,0.00,VWS V14.01,2013-08-11 09:19:00,
2013-08-11 04:24:00,71.1,65.7,29.95,SSE,163,0.0,0.0,83,0.00,,SKC,0.00,VWS V14.01,2013-08-11 09:24:00,
2013-08-11 04:29:00,71.2,66.1,29.95,SSE,163,0.0,0.0,84,0.00,,SKC,0.00,VWS V14.01,2013-08-11 09:29:00,
2013-08-11 04:34:00,71.1,66.0,29.94,SSE,163,0.0,0.0,84,0.00,,SKC,0.00,VWS V14.01,2013-08-11 09:34:00,
2013-08-11 04:39:00,70.9,65.8,29.94,SSE,163,0.0,0.0,84,0.00,,SKC,0.00,VWS V14.01,2013-08-11 09:39:00,
2013-08-11 04:44:00,71.1,66.0,29.94,SSE,163,0.0,0.0,84,0.00,,SKC,0.00,VWS V14.01,2013-08-11 09:44:00,
2013-08-11 04:49:00,71.3,66.2,29.94,SSE,163,0.0,0.0,84,0.00,,SKC,0.00,VWS V14.01,2013-08-11 09:49:00,
2013-08-11 04:54:00,71.3,66.2,29.94,SSE,163,0.0,0.0,84,0.00,,SKC,0.00,VWS V14.01,2013-08-11 09:54:00,
2013-08-11 04:59:00,71.1,65.7,29.94,SSE,163,0.0,0.0,83,0.00,,SKC,0.00,VWS V14.01,2013-08-11 09:59:00,
2013-08-11 05:04:00,70.9,65.8,29.94,SSE,163,0.0,0.0,84,0.00,,SKC,0.00,VWS V14.01,2013-08-11 10:04:00,
2013-08-11 05:09:00,70.8,65.7,29.94,SSE,163,0.0,0.0,84,0.00,,SKC,0.00,VWS V14.01,2013-08-11 10:09:00,
2013-08-11 05:14:00,70.5,65.4,29.94,SSE,163,0.0,0.0,84,0.00,,SKC,0.00,VWS V14.01,2013-08-11 10:14:00,
2013-08-11 05:19:00,70.4,65.3,29.94,SSE,163,0.0,0.0,84,0.00,,SKC,0.00,VWS V14.01,2013-08-11 10:19:00,
2013-08-11 05:24:00,70.4,65.3,29.94,SSE,163,0.0,0.0,84,0.00,,SKC,0.00,VWS V14.01,2013-08-11 10:24:00,
2013-08-11 05:30:00,70.2,65.5,29.94,SSE,163,0.0,0.0,85,0.00,,SKC,0.00,VWS V14.01,2013-08-11 10:30:00,
2013-08-11 05:35:00,70.1,65.4,29.94,SSE,163,0.0,0.0,85,0.00,,SKC,0.00,VWS V14.01,2013-08-11 10:35:00,
2013-08-11 05:40:00,70.3,65.9,29.94,SSE,163,0.0,1.0,86,0.00,,SKC,0.00,VWS V14.01,2013-08-11 10:40:00,
2013-08-11 05:45:00,70.6,65.9,29.94,SSE,163,0.0,0.0,85,0.00,,SKC,0.00,VWS V14.01,2013-08-11 10:45:00,
2013-08-11 05:50:00,70.6,65.9,29.94,SSE,163,0.0,0.0,85,0.00,,SKC,0.00,VWS V14.01,2013-08-11 10:50:00,
2013-08-11 05:55:00,70.6,65.9,29.94,SSE,163,0.0,0.0,85,0.00,,SKC,0.00,VWS V14.01,2013-08-11 10:55:00,
2013-08-11 06:00:00,70.5,65.8,29.94,SSE,163,0.0,0.0,85,0.00,,SKC,0.00,VWS V14.01,2013-08-11 11:00:00,
2013-08-11 06:05:00,70.5,65.8,29.94,SSE,163,0.0,0.0,85,0.00,,SKC,0.00,VWS V14.01,2013-08-11 11:05:00,
2013-08-11 06:10:00,70.4,65.7,29.95,SSE,163,0.0,0.0,85,0.00,,SKC,0.00,VWS V14.01,2013-08-11 11:10:00,
2013-08-11 06:15:00,70.2,65.5,29.95,SSE,163,0.0,0.0,85,0.00,,SKC,0.00,VWS V14.01,2013-08-11 11:15:00,
2013-08-11 06:20:00,70.0,65.3,29.95,SSE,163,0.0,0.0,85,0.00,,SKC,0.00,VWS V14.01,2013-08-11 11:20:00,
2013-08-11 06:25:00,69.9,65.2,29.95,SSE,163,0.0,0.0,85,0.00,,SKC,0.00,VWS V14.01,2013-08-11 11:25:00,
2013-08-11 06:30:00,69.9,65.5,29.95,SSE,163,0.0,0.0,86,0.00,,SKC,0.00,VWS V14.01,2013-08-11 11:30:00,
2013-08-11 06:35:00,69.8,65.4,29.95,SSE,163,0.0,0.0,86,0.00,,SKC,0.00,VWS V14.01,2013-08-11 11:35:00,
2013-08-11 06:40:00,69.7,65.3,29.95,SSE,163,0.0,0.0,86,0.00,,SKC,0.00,VWS V14.01,2013-08-11 11:40:00,
2013-08-11 06:45:00,69.6,65.2,29.96,SSE,163,0.0,0.0,86,0.00,,SKC,0.00,VWS V14.01,2013-08-11 11:45:00,
2013-08-11 06:51:00,69.4,65.0,29.96,SSE,163,0.0,0.0,86,0.00,,SKC,0.00,VWS V14.01,2013-08-11 11:51:00,
2013-08-11 06:56:00,69.4,65.0,29.96,SSE,163,0.0,0.0,86,0.00,,SKC,0.00,VWS V14.01,2013-08-11 11:56:00,
2013-08-11 07:01:00,69.5,65.5,29.96,SSE,163,0.0,0.0,87,0.00,,SKC,0.00,VWS V14.01,2013-08-11 12:01:00,
2013-08-11 07:06:00,69.6,65.6,29.96,SSE,163,0.0,0.0,87,0.00,,SKC,0.00,VWS V14.01,2013-08-11 12:06:00,
2013-08-11 07:11:00,69.5,65.5,29.96,SSE,163,0.0,0.0,87,0.00,,SKC,0.00,VWS V14.01,2013-08-11 12:11:00,
2013-08-11 07:16:00,69.4,65.4,29.97,SSE,163,0.0,0.0,87,0.00,,SKC,0.00,VWS V14.01,2013-08-11 12:16:00,
2013-08-11 07:21:00,69.4,65.4,29.97,SSE,163,0.0,0.0,87,0.00,,SKC,0.00,VWS V14.01,2013-08-11 12:21:00,
2013-08-11 07:26:00,69.4,65.4,29.97,SSE,163,0.0,0.0,87,0.00,,SKC,0.00,VWS V14.01,2013-08-11 12:26:00,
2013-08-11 07:31:00,69.5,65.5,29.98,SSE,163,0.0,0.0,87,0.00,,SKC,0.00,VWS V14.01,2013-08-11 12:31:00,
2013-08-11 07:36:00,69.8,65.8,29.98,SSE,163,0.0,1.0,87,0.00,,SKC,0.00,VWS V14.01,2013-08-11 12:36:00,
2013-08-11 07:41:00,70.1,66.1,29.98,SSE,163,0.0,0.0,87,0.00,,SKC,0.00,VWS V14.01,2013-08-11 12:41:00,
2013-08-11 07:46:00,70.0,66.0,29.98,SSE,163,0.0,0.0,87,0.00,,SKC,0.00,VWS V14.01,2013-08-11 12:46:00,
2013-08-11 07:51:00,69.9,65.5,29.98,SSE,163,0.0,0.0,86,0.00,,SKC,0.00,VWS V14.01,2013-08-11 12:51:00,
2013-08-11 07:56:00,70.1,66.1,29.98,SSE,163,2.0,2.0,87,0.00,,SKC,0.00,VWS V14.01,2013-08-11 12:56:00,
2013-08-11 08:01:00,70.3,66.2,29.98,SSE,163,2.0,2.0,87,0.00,,SKC,0.00,VWS V14.01,2013-08-11 13:01:00,
2013-08-11 08:06:00,70.7,66.3,29.98,SSE,163,1.0,2.0,86,0.00,,SKC,0.00,VWS V14.01,2013-08-11 13:06:00,
2013-08-11 08:11:00,71.2,66.8,29.98,SSE,163,3.0,3.0,86,0.00,,SKC,0.00,VWS V14.01,2013-08-11 13:11:00,
2013-08-11 08:16:00,71.6,67.2,29.98,SSE,163,1.0,2.0,86,0.00,,SKC,0.00,VWS V14.01,2013-08-11 13:16:00,
2013-08-11 08:21:00,72.0,67.2,29.98,SSE,163,1.0,2.0,85,0.00,,SKC,0.00,VWS V14.01,2013-08-11 13:21:00,
2013-08-11 08:26:00,72.3,67.5,29.99,SSE,163,2.0,6.0,85,0.00,,SKC,0.00,VWS V14.01,2013-08-11 13:26:00,
2013-08-11 08:31:00,72.6,67.8,29.99,South,190,4.0,7.0,85,0.00,,SKC,0.00,VWS V14.01,2013-08-11 13:31:00,
2013-08-11 08:36:00,73.0,68.2,29.99,South,186,4.0,4.0,85,0.00,,SKC,0.00,VWS V14.01,2013-08-11 13:36:00,
2013-08-11 08:41:00,73.4,68.6,29.99,South,171,5.0,5.0,85,0.00,,SKC,0.00,VWS V14.01,2013-08-11 13:41:00,
2013-08-11 08:46:00,73.9,69.1,29.99,South,175,3.0,6.0,85,0.00,,SKC,0.00,VWS V14.01,2013-08-11 13:46:00,
2013-08-11 08:51:00,74.7,69.9,29.99,SSW,195,4.0,4.0,85,0.00,,SKC,0.00,VWS V14.01,2013-08-11 13:51:00,
2013-08-11 08:56:00,75.3,69.8,29.99,SSW,196,5.0,7.0,83,0.00,,SKC,0.00,VWS V14.01,2013-08-11 13:56:00,
2013-08-11 09:01:00,75.5,69.6,29.99,SW,230,3.0,4.0,82,0.00,,SKC,0.00,VWS V14.01,2013-08-11 14:01:00,
2013-08-11 09:06:00,76.1,69.8,29.99,South,185,6.0,7.0,81,0.00,,SKC,0.00,VWS V14.01,2013-08-11 14:06:00,
2013-08-11 09:11:00,76.7,70.1,29.99,SSW,206,2.0,2.0,80,0.00,,SKC,0.00,VWS V14.01,2013-08-11 14:11:00,
2013-08-11 09:16:00,76.8,69.8,30.00,South,191,3.0,5.0,79,0.00,,SKC,0.00,VWS V14.01,2013-08-11 14:16:00,
2013-08-11 09:22:00,76.9,69.9,30.00,South,182,2.0,4.0,79,0.00,,SKC,0.00,VWS V14.01,2013-08-11 14:22:00,
2013-08-11 09:27:00,77.2,69.8,30.00,South,176,6.0,7.0,78,0.00,,SKC,0.00,VWS V14.01,2013-08-11 14:27:00,
2013-08-11 09:32:00,77.3,69.5,30.00,SSW,194,6.0,7.0,77,0.00,,SKC,0.00,VWS V14.01,2013-08-11 14:32:00,
2013-08-11 09:37:00,77.6,69.4,30.00,South,170,3.0,5.0,76,0.00,,SKC,0.00,VWS V14.01,2013-08-11 14:37:00,
2013-08-11 09:42:00,78.4,69.4,30.00,South,173,4.0,7.0,74,0.00,,SKC,0.00,VWS V14.01,2013-08-11 14:42:00,
2013-08-11 09:47:00,78.9,69.5,30.00,South,176,3.0,5.0,73,0.00,,SKC,0.00,VWS V14.01,2013-08-11 14:47:00,
2013-08-11 09:52:00,79.6,69.8,30.00,South,177,3.0,5.0,72,0.00,,SKC,0.00,VWS V14.01,2013-08-11 14:52:00,
2013-08-11 09:57:00,80.1,69.4,30.00,South,179,1.0,2.0,70,0.00,,SKC,0.00,VWS V14.01,2013-08-11 14:57:00,
2013-08-11 10:02:00,80.9,69.4,30.00,SSW,199,4.0,5.0,68,0.00,,SKC,0.00,VWS V14.01,2013-08-11 15:02:00,
2013-08-11 10:07:00,81.0,69.4,30.00,SSW,198,4.0,7.0,68,0.00,,SKC,0.00,VWS V14.01,2013-08-11 15:07:00,
2013-08-11 10:12:00,80.9,69.4,30.00,SSE,168,3.0,4.0,68,0.00,,SKC,0.00,VWS V14.01,2013-08-11 15:12:00,
2013-08-11 10:17:00,81.4,70.3,30.00,SSE,156,3.0,4.0,69,0.00,,SKC,0.00,VWS V14.01,2013-08-11 15:17:00,
2013-08-11 10:22:00,82.2,70.6,30.00,SSE,158,2.0,3.0,68,0.00,,SKC,0.00,VWS V14.01,2013-08-11 15:22:00,
2013-08-11 10:27:00,83.0,70.0,30.00,SW,236,0.0,4.0,65,0.00,,SKC,0.00,VWS V14.01,2013-08-11 15:27:00,
2013-08-11 10:32:00,83.7,69.8,30.00,SE,146,3.0,5.0,63,0.00,,SKC,0.00,VWS V14.01,2013-08-11 15:32:00,
2013-08-11 10:37:00,83.8,69.4,30.00,SSW,193,3.0,5.0,62,0.00,,SKC,0.00,VWS V14.01,2013-08-11 15:37:00,
2013-08-11 10:43:00,83.4,68.6,30.00,SSE,153,4.0,6.0,61,0.00,,SKC,0.00,VWS V14.01,2013-08-11 15:43:00,
2013-08-11 10:48:00,83.4,68.1,30.00,SE,144,3.0,4.0,60,0.00,,SKC,0.00,VWS V14.01,2013-08-11 15:48:00,
2013-08-11 10:53:00,84.1,69.2,30.00,SSE,157,3.0,5.0,61,0.00,,SKC,0.00,VWS V14.01,2013-08-11 15:53:00,
2013-08-11 10:58:00,84.4,69.0,30.00,East,101,5.0,6.0,60,0.00,,SKC,0.00,VWS V14.01,2013-08-11 15:58:00,
2013-08-11 11:03:00,85.0,69.1,30.00,SSE,158,2.0,4.0,59,0.00,,SKC,0.00,VWS V14.01,2013-08-11 16:03:00,
2013-08-11 11:08:00,84.3,68.4,30.00,South,180,3.0,6.0,59,0.00,,SKC,0.00,VWS V14.01,2013-08-11 16:08:00,
2013-08-11 11:14:00,84.1,68.7,30.00,SSE,162,3.0,4.0,60,0.00,,SKC,0.00,VWS V14.01,2013-08-11 16:14:00,
2013-08-11 11:19:00,84.9,69.0,30.00,East,98,4.0,5.0,59,0.00,,SKC,0.00,VWS V14.01,2013-08-11 16:19:00,
2013-08-11 11:24:00,85.2,68.8,30.00,SSW,195,4.0,7.0,58,0.00,,SKC,0.00,VWS V14.01,2013-08-11 16:24:00,
2013-08-11 11:29:00,85.6,68.6,30.00,South,172,3.0,4.0,57,0.00,,SKC,0.00,VWS V14.01,2013-08-11 16:29:00,
2013-08-11 11:35:00,86.3,68.2,30.00,SE,128,4.0,4.0,55,0.00,,SKC,0.00,VWS V14.01,2013-08-11 16:35:00,
2013-08-11 11:40:00,86.1,68.6,30.00,SE,125,4.0,7.0,56,0.00,,SKC,0.00,VWS V14.01,2013-08-11 16:40:00,
2013-08-11 11:45:00,85.1,67.1,30.00,East,87,1.0,7.0,55,0.00,,SKC,0.00,VWS V14.01,2013-08-11 16:45:00,
2013-08-11 11:50:00,85.4,67.4,29.99,SSE,147,3.0,9.0,55,0.00,,SKC,0.00,VWS V14.01,2013-08-11 16:50:00,
2013-08-11 11:55:00,86.0,68.0,29.99,NE,47,1.0,5.0,55,0.00,,SKC,0.00,VWS V14.01,2013-08-11 16:55:00,
2013-08-11 12:00:00,86.8,68.2,29.99,South,183,5.0,5.0,54,0.00,,SKC,0.00,VWS V14.01,2013-08-11 17:00:00,
2013-08-11 12:05:00,87.8,68.0,29.99,NNE,31,2.0,5.0,52,0.00,,SKC,0.00,VWS V14.01,2013-08-11 17:05:00,
2013-08-11 12:10:00,87.5,68.3,29.99,South,173,7.0,9.0,53,0.00,,SKC,0.00,VWS V14.01,2013-08-11 17:10:00,
2013-08-11 12:15:00,86.5,67.3,29.99,South,190,1.0,3.0,53,0.00,,SKC,0.00,VWS V14.01,2013-08-11 17:15:00,
2013-08-11 12:20:00,86.5,67.9,29.98,SSW,202,4.0,6.0,54,0.00,,SKC,0.00,VWS V14.01,2013-08-11 17:20:00,
2013-08-11 12:25:00,86.8,67.6,29.98,South,180,2.0,2.0,53,0.00,,SKC,0.00,VWS V14.01,2013-08-11 17:25:00,
2013-08-11 12:30:00,87.3,67.5,29.98,South,180,1.0,2.0,52,0.00,,SKC,0.00,VWS V14.01,2013-08-11 17:30:00,
2013-08-11 12:35:00,88.6,68.2,29.98,East,91,3.0,5.0,51,0.00,,SKC,0.00,VWS V14.01,2013-08-11 17:35:00,
2013-08-11 12:40:00,89.0,66.8,29.97,NE,35,3.0,4.0,48,0.00,,SKC,0.00,VWS V14.01,2013-08-11 17:40:00,
2013-08-11 12:45:00,89.2,67.0,29.97,SSE,165,5.0,7.0,48,0.00,,SKC,0.00,VWS V14.01,2013-08-11 17:45:00,
2013-08-11 12:50:00,88.8,66.6,29.97,South,184,4.0,9.0,48,0.00,,SKC,0.00,VWS V14.01,2013-08-11 17:50:00,
2013-08-11 12:55:00,87.7,66.8,29.97,SSW,196,1.0,3.0,50,0.00,,SKC,0.00,VWS V14.01,2013-08-11 17:55:00,
2013-08-11 13:00:00,87.7,66.8,29.97,SSE,159,5.0,5.0,50,0.00,,SKC,0.00,VWS V14.01,2013-08-11 18:00:00,
2013-08-11 13:05:00,89.1,67.5,29.97,SSE,155,3.0,5.0,49,0.00,,SKC,0.00,VWS V14.01,2013-08-11 18:05:00,
2013-08-11 13:10:00,89.6,66.7,29.97,East,80,4.0,4.0,47,0.00,,SKC,0.00,VWS V14.01,2013-08-11 18:10:00,
2013-08-11 13:15:00,89.6,67.3,29.97,SSE,148,4.0,4.0,48,0.00,,SKC,0.00,VWS V14.01,2013-08-11 18:15:00,
2013-08-11 13:20:00,89.6,67.3,29.97,South,171,1.0,5.0,48,0.00,,SKC,0.00,VWS V14.01,2013-08-11 18:20:00,
2013-08-11 13:25:00,89.4,67.1,29.97,SE,126,3.0,3.0,48,0.00,,SKC,0.00,VWS V14.01,2013-08-11 18:25:00,
2013-08-11 13:30:00,90.6,68.2,29.97,East,89,0.0,5.0,48,0.00,,SKC,0.00,VWS V14.01,2013-08-11 18:30:00,
2013-08-11 13:36:00,91.4,67.7,29.96,ENE,57,5.0,9.0,46,0.00,,SKC,0.00,VWS V14.01,2013-08-11 18:36:00,
2013-08-11 13:41:00,90.3,67.3,29.96,NE,35,3.0,4.0,47,0.00,,SKC,0.00,VWS V14.01,2013-08-11 18:41:00,
2013-08-11 13:46:00,89.5,67.2,29.96,NE,49,1.0,4.0,48,0.00,,SKC,0.00,VWS V14.01,2013-08-11 18:46:00,
2013-08-11 13:51:00,90.3,66.7,29.96,South,169,5.0,7.0,46,0.00,,SKC,0.00,VWS V14.01,2013-08-11 18:51:00,
2013-08-11 13:56:00,90.4,66.8,29.96,SE,132,3.0,6.0,46,0.00,,SKC,0.00,VWS V14.01,2013-08-11 18:56:00,
2013-08-11 14:01:00,90.2,66.6,29.96,NE,53,3.0,6.0,46,0.00,,SKC,0.00,VWS V14.01,2013-08-11 19:01:00,
2013-08-11 14:06:00,90.1,66.6,29.96,ENE,71,1.0,4.0,46,0.00,,SKC,0.00,VWS V14.01,2013-08-11 19:06:00,
2013-08-11 14:11:00,90.5,66.9,29.95,SE,144,3.0,5.0,46,0.00,,SKC,0.00,VWS V14.01,2013-08-11 19:11:00,
2013-08-11 14:16:00,91.3,67.0,29.95,South,169,4.0,4.0,45,0.00,,SKC,0.00,VWS V14.01,2013-08-11 19:16:00,
2013-08-11 14:21:00,91.1,66.2,29.95,ESE,106,3.0,7.0,44,0.00,,SKC,0.00,VWS V14.01,2013-08-11 19:21:00,
2013-08-11 14:26:00,91.8,66.8,29.95,East,95,2.0,3.0,44,0.00,,SKC,0.00,VWS V14.01,2013-08-11 19:26:00,
2013-08-11 14:31:00,91.5,66.5,29.95,NNW,346,4.0,5.0,44,0.00,,SKC,0.00,VWS V14.01,2013-08-11 19:31:00,
2013-08-11 14:37:00,91.9,66.2,29.94,SSE,162,6.0,11.0,43,0.00,,SKC,0.00,VWS V14.01,2013-08-11 19:37:00,
2013-08-11 14:42:00,92.8,65.7,29.94,SE,132,4.0,9.0,41,0.00,,SKC,0.00,VWS V14.01,2013-08-11 19:42:00,
2013-08-11 14:47:00,93.3,67.5,29.94,ESE,111,6.0,9.0,43,0.00,,SKC,0.00,VWS V14.01,2013-08-11 19:47:00,
2013-08-11 14:52:00,93.1,65.9,29.94,SE,142,7.0,7.0,41,0.00,,SKC,0.00,VWS V14.01,2013-08-11 19:52:00,
2013-08-11 14:57:00,91.9,66.2,29.93,East,97,2.0,5.0,43,0.00,,SKC,0.00,VWS V14.01,2013-08-11 19:57:00,
2013-08-11 15:02:00,91.8,65.5,29.93,ESE,119,5.0,7.0,42,0.00,,SKC,0.00,VWS V14.01,2013-08-11 20:02:00,
2013-08-11 15:07:00,91.2,65.6,29.93,SE,144,2.0,4.0,43,0.00,,SKC,0.00,VWS V14.01,2013-08-11 20:07:00,
2013-08-11 15:12:00,91.4,65.8,29.93,SSE,160,0.0,3.0,43,0.00,,SKC,0.00,VWS V14.01,2013-08-11 20:12:00,
2013-08-11 15:17:00,92.0,65.6,29.92,ESE,106,3.0,4.0,42,0.00,,SKC,0.00,VWS V14.01,2013-08-11 20:17:00,
2013-08-11 15:22:00,91.8,65.5,29.92,East,96,3.0,3.0,42,0.00,,SKC,0.00,VWS V14.01,2013-08-11 20:22:00,
2013-08-11 15:27:00,91.6,66.0,29.92,South,178,4.0,5.0,43,0.00,,SKC,0.00,VWS V14.01,2013-08-11 20:27:00,
2013-08-11 15:32:00,91.5,65.9,29.92,SE,134,1.0,4.0,43,0.00,,SKC,0.00,VWS V14.01,2013-08-11 20:32:00,
2013-08-11 15:37:00,92.1,65.7,29.92,SSE,156,1.0,2.0,42,0.00,,SKC,0.00,VWS V14.01,2013-08-11 20:37:00,
2013-08-11 15:42:00,92.5,65.4,29.91,SE,125,4.0,9.0,41,0.00,,SKC,0.00,VWS V14.01,2013-08-11 20:42:00,
2013-08-11 15:47:00,93.2,66.0,29.91,East,84,0.0,4.0,41,0.00,,SKC,0.00,VWS V14.01,2013-08-11 20:47:00,
2013-08-11 15:53:00,94.0,66.0,29.90,ESE,111,3.0,7.0,40,0.00,,SKC,0.00,VWS V14.01,2013-08-11 20:53:00,
2013-08-11 15:58:00,94.5,65.7,29.90,ESE,102,5.0,10.0,39,0.00,,SKC,0.00,VWS V14.01,2013-08-11 20:58:00,
2013-08-11 16:03:00,94.5,65.0,29.90,ESE,115,1.0,3.0,38,0.00,,SKC,0.00,VWS V14.01,2013-08-11 21:03:00,
2013-08-11 16:08:00,94.6,65.8,29.90,North,5,1.0,7.0,39,0.00,,SKC,0.00,VWS V14.01,2013-08-11 21:08:00,
2013-08-11 16:13:00,95.0,65.4,29.90,ESE,104,3.0,9.0,38,0.00,,SKC,0.00,VWS V14.01,2013-08-11 21:13:00,
2013-08-11 16:18:00,93.8,65.8,29.90,ESE,115,4.0,6.0,40,0.00,,SKC,0.00,VWS V14.01,2013-08-11 21:18:00,
2013-08-11 16:23:00,94.0,66.0,29.89,NE,36,5.0,10.0,40,0.00,,SKC,0.00,VWS V14.01,2013-08-11 21:23:00,
2013-08-11 16:28:00,93.8,65.8,29.89,ESE,114,5.0,6.0,40,0.00,,SKC,0.00,VWS V14.01,2013-08-11 21:28:00,
2013-08-11 16:33:00,94.1,66.1,29.89,East,94,5.0,10.0,40,0.00,,SKC,0.00,VWS V14.01,2013-08-11 21:33:00,
2013-08-11 16:38:00,94.4,65.7,29.89,NNE,32,3.0,5.0,39,0.00,,SKC,0.00,VWS V14.01,2013-08-11 21:38:00,
2013-08-11 16:43:00,94.7,65.9,29.89,NNE,24,2.0,2.0,39,0.00,,SKC,0.00,VWS V14.01,2013-08-11 21:43:00,
2013-08-11 16:48:00,94.1,65.4,29.89,ENE,59,3.0,4.0,39,0.00,,SKC,0.00,VWS V14.01,2013-08-11 21:48:00,
2013-08-11 16:53:00,93.1,65.2,29.89,ESE,103,4.0,6.0,40,0.00,,SKC,0.00,VWS V14.01,2013-08-11 21:53:00,
2013-08-11 16:58:00,92.3,65.2,29.89,SE,131,7.0,9.0,41,0.00,,SKC,0.00,VWS V14.01,2013-08-11 21:58:00,
2013-08-11 17:03:00,91.9,64.9,29.89,East,82,7.0,7.0,41,0.00,,SKC,0.00,VWS V14.01,2013-08-11 22:03:00,
2013-08-11 17:08:00,91.9,64.9,29.89,SSE,150,5.0,9.0,41,0.00,,SKC,0.00,VWS V14.01,2013-08-11 22:08:00,
2013-08-11 17:13:00,93.5,65.6,29.89,ESE,109,4.0,7.0,40,0.00,,SKC,0.00,VWS V14.01,2013-08-11 22:13:00,
2013-08-11 17:18:00,94.5,65.7,29.89,SSE,148,3.0,4.0,39,0.00,,SKC,0.00,VWS V14.01,2013-08-11 22:18:00,
2013-08-11 17:23:00,94.6,65.8,29.89,East,89,3.0,10.0,39,0.00,,SKC,0.00,VWS V14.01,2013-08-11 22:23:00,
2013-08-11 17:28:00,94.4,65.7,29.88,SSE,150,3.0,7.0,39,0.00,,SKC,0.00,VWS V14.01,2013-08-11 22:28:00,
2013-08-11 17:33:00,94.0,66.0,29.89,East,83,7.0,10.0,40,0.00,,SKC,0.00,VWS V14.01,2013-08-11 22:33:00,
2013-08-11 17:39:00,93.1,65.9,29.89,SE,136,11.0,11.0,41,0.00,,SKC,0.00,VWS V14.01,2013-08-11 22:39:00,
2013-08-11 17:44:00,92.5,66.1,29.89,ESE,113,9.0,10.0,42,0.00,,SKC,0.00,VWS V14.01,2013-08-11 22:44:00,
2013-08-11 17:49:00,91.8,65.5,29.89,East,82,1.0,1.0,42,0.00,,SKC,0.00,VWS V14.01,2013-08-11 22:49:00,
2013-08-11 17:54:00,92.7,66.3,29.89,SE,143,0.0,2.0,42,0.00,,SKC,0.00,VWS V14.01,2013-08-11 22:54:00,
2013-08-11 17:59:00,93.8,65.8,29.88,East,91,2.0,3.0,40,0.00,,SKC,0.00,VWS V14.01,2013-08-11 22:59:00,
2013-08-11 18:04:00,94.0,66.0,29.88,ESE,117,5.0,6.0,40,0.00,,SKC,0.00,VWS V14.01,2013-08-11 23:04:00,
2013-08-11 18:09:00,94.3,66.3,29.88,NE,51,4.0,4.0,40,0.00,,SKC,0.00,VWS V14.01,2013-08-11 23:09:00,
2013-08-11 18:14:00,94.6,66.6,29.88,ENE,63,4.0,6.0,40,0.00,,SKC,0.00,VWS V14.01,2013-08-11 23:14:00,
2013-08-11 18:19:00,94.1,66.1,29.89,East,80,2.0,2.0,40,0.00,,SKC,0.00,VWS V14.01,2013-08-11 23:19:00,
2013-08-11 18:24:00,92.8,65.7,29.89,East,98,4.0,7.0,41,0.00,,SKC,0.00,VWS V14.01,2013-08-11 23:24:00,
2013-08-11 18:29:00,91.7,65.4,29.89,East,86,0.0,2.0,42,0.00,,SKC,0.00,VWS V14.01,2013-08-11 23:29:00,
2013-08-11 18:34:00,91.1,65.5,29.89,ESE,107,5.0,9.0,43,0.00,,SKC,0.00,VWS V14.01,2013-08-11 23:34:00,
2013-08-11 18:39:00,90.7,65.2,29.89,ESE,111,8.0,8.0,43,0.00,,SKC,0.00,VWS V14.01,2013-08-11 23:39:00,
2013-08-11 18:44:00,90.5,65.0,29.89,East,80,3.0,3.0,43,0.00,,SKC,0.00,VWS V14.01,2013-08-11 23:44:00,
2013-08-11 18:49:00,90.4,64.9,29.89,East,95,1.0,6.0,43,0.00,,SKC,0.00,VWS V14.01,2013-08-11 23:49:00,
2013-08-11 18:54:00,90.4,65.5,29.89,SE,128,5.0,7.0,44,0.00,,SKC,0.00,VWS V14.01,2013-08-11 23:54:00,
2013-08-11 19:00:00,90.4,65.5,29.89,SSE,152,11.0,12.0,44,0.00,,SKC,0.00,VWS V14.01,2013-08-12 00:00:00,
2013-08-11 19:05:00,89.9,65.1,29.89,SE,136,7.0,7.0,44,0.00,,SKC,0.00,VWS V14.01,2013-08-12 00:05:00,
2013-08-11 19:10:00,89.7,64.9,29.89,East,96,2.0,4.0,44,0.00,,SKC,0.00,VWS V14.01,2013-08-12 00:10:00,
2013-08-11 19:15:00,89.7,64.9,29.89,East,83,2.0,4.0,44,0.00,,SKC,0.00,VWS V14.01,2013-08-12 00:15:00,
2013-08-11 19:20:00,89.8,65.0,29.89,ESE,106,6.0,6.0,44,0.00,,SKC,0.00,VWS V14.01,2013-08-12 00:20:00,
2013-08-11 19:25:00,89.8,65.0,29.89,East,89,0.0,3.0,44,0.00,,SKC,0.00,VWS V14.01,2013-08-12 00:25:00,
2013-08-11 19:30:00,89.7,64.9,29.89,East,96,5.0,5.0,44,0.00,,SKC,0.00,VWS V14.01,2013-08-12 00:30:00,
2013-08-11 19:35:00,89.6,64.8,29.89,ESE,106,0.0,2.0,44,0.00,,SKC,0.00,VWS V14.01,2013-08-12 00:35:00,
2013-08-11 19:40:00,89.5,64.7,29.90,ESE,114,5.0,5.0,44,0.00,,SKC,0.00,VWS V14.01,2013-08-12 00:40:00,
2013-08-11 19:45:00,89.4,65.3,29.90,East,98,17.0,17.0,45,0.00,,SKC,0.00,VWS V14.01,2013-08-12 00:45:00,
2013-08-11 19:50:00,86.1,68.1,29.91,SE,140,9.0,13.0,55,0.00,,SKC,0.00,VWS V14.01,2013-08-12 00:50:00,
2013-08-11 19:55:00,83.4,68.1,29.92,SE,143,9.0,15.0,60,0.00,,SKC,0.00,VWS V14.01,2013-08-12 00:55:00,
2013-08-11 20:00:00,82.1,68.3,29.92,SE,144,9.0,16.0,63,0.00,,SKC,0.00,VWS V14.01,2013-08-12 01:00:00,
2013-08-11 20:05:00,81.6,67.8,29.92,SE,141,10.0,14.0,63,0.00,,SKC,0.00,VWS V14.01,2013-08-12 01:05:00,
2013-08-11 20:11:00,81.1,67.8,29.93,SE,131,6.0,6.0,64,0.00,,SKC,0.00,VWS V14.01,2013-08-12 01:11:00,
2013-08-11 20:16:00,80.7,67.8,29.92,SSE,149,5.0,5.0,65,0.00,,SKC,0.00,VWS V14.01,2013-08-12 01:16:00,
2013-08-11 20:21:00,80.5,68.1,29.92,SSE,160,5.0,7.0,66,0.00,,SKC,0.00,VWS V14.01,2013-08-12 01:21:00,
2013-08-11 20:26:00,80.3,67.9,29.92,SE,137,6.0,11.0,66,0.00,,SKC,0.00,VWS V14.01,2013-08-12 01:26:00,
2013-08-11 20:31:00,80.2,67.8,29.93,South,175,4.0,7.0,66,0.00,,SKC,0.00,VWS V14.01,2013-08-12 01:31:00,
2013-08-11 20:36:00,80.0,68.1,29.93,SE,134,7.0,11.0,67,0.00,,SKC,0.00,VWS V14.01,2013-08-12 01:36:00,
2013-08-11 20:41:00,79.6,68.1,29.93,SE,146,6.0,12.0,68,0.00,,SKC,0.00,VWS V14.01,2013-08-12 01:41:00,
2013-08-11 20:47:00,79.3,68.3,29.94,SSE,162,5.0,7.0,69,0.00,,SKC,0.00,VWS V14.01,2013-08-12 01:47:00,
2013-08-11 20:52:00,79.1,68.1,29.94,SSE,152,4.0,7.0,69,0.00,,SKC,0.00,VWS V14.01,2013-08-12 01:52:00,
2013-08-11 20:57:00,78.8,68.2,29.94,SE,133,6.0,11.0,70,0.00,,SKC,0.00,VWS V14.01,2013-08-12 01:57:00,
2013-08-11 21:02:00,78.7,68.1,29.94,SSE,167,7.0,10.0,70,0.00,,SKC,0.00,VWS V14.01,2013-08-12 02:02:00,
2013-08-11 21:07:00,78.7,68.1,29.94,SE,146,9.0,10.0,70,0.00,,SKC,0.00,VWS V14.01,2013-08-12 02:07:00,
2013-08-11 21:12:00,78.7,68.1,29.94,South,177,10.0,11.0,70,0.00,,SKC,0.00,VWS V14.01,2013-08-12 02:12:00,
2013-08-11 21:17:00,78.4,68.2,29.94,SSW,201,5.0,7.0,71,0.00,,SKC,0.00,VWS V14.01,2013-08-12 02:17:00,
2013-08-11 21:23:00,78.2,68.0,29.94,South,175,5.0,10.0,71,0.00,,SKC,0.00,VWS V14.01,2013-08-12 02:23:00,
2013-08-11 21:28:00,78.0,67.8,29.94,SSE,165,5.0,5.0,71,0.00,,SKC,0.00,VWS V14.01,2013-08-12 02:28:00,
2013-08-11 21:33:00,77.9,67.8,29.94,SSE,167,6.0,10.0,71,0.00,,SKC,0.00,VWS V14.01,2013-08-12 02:33:00,
2013-08-11 21:38:00,77.8,67.7,29.94,South,186,7.0,10.0,71,0.00,,SKC,0.00,VWS V14.01,2013-08-12 02:38:00,
2013-08-11 21:43:00,77.8,67.7,29.94,SSW,193,4.0,8.0,71,0.00,,SKC,0.00,VWS V14.01,2013-08-12 02:43:00,
2013-08-11 21:48:00,77.7,67.6,29.94,South,189,3.0,5.0,71,0.00,,SKC,0.00,VWS V14.01,2013-08-12 02:48:00,
2013-08-11 21:53:00,77.6,67.5,29.94,South,190,7.0,8.0,71,0.00,,SKC,0.00,VWS V14.01,2013-08-12 02:53:00,
2013-08-11 21:58:00,77.6,67.5,29.95,SSW,201,3.0,9.0,71,0.00,,SKC,0.00,VWS V14.01,2013-08-12 02:58:00,
2013-08-11 22:03:00,77.5,66.9,29.95,South,174,6.0,7.0,70,0.00,,SKC,0.00,VWS V14.01,2013-08-12 03:03:00,
2013-08-11 22:08:00,77.4,66.9,29.95,South,180,2.0,6.0,70,0.00,,SKC,0.00,VWS V14.01,2013-08-12 03:08:00,
2013-08-11 22:13:00,77.4,66.9,29.95,SSW,198,9.0,10.0,70,0.00,,SKC,0.00,VWS V14.01,2013-08-12 03:13:00,
2013-08-11 22:18:00,77.3,66.8,29.96,South,186,3.0,9.0,70,0.00,,SKC,0.00,VWS V14.01,2013-08-12 03:18:00,
2013-08-11 22:23:00,77.2,66.7,29.96,South,171,2.0,6.0,70,0.00,,SKC,0.00,VWS V14.01,2013-08-12 03:23:00,
2013-08-11 22:28:00,77.1,67.0,29.96,SSW,200,5.0,8.0,71,0.00,,SKC,0.00,VWS V14.01,2013-08-12 03:28:00,
2013-08-11 22:33:00,76.9,66.8,29.96,SSW,194,6.0,11.0,71,0.00,,SKC,0.00,VWS V14.01,2013-08-12 03:33:00,
2013-08-11 22:38:00,76.9,67.2,29.96,SSE,167,3.0,11.0,72,0.00,,SKC,0.00,VWS V14.01,2013-08-12 03:38:00,
2013-08-11 22:43:00,76.8,67.1,29.96,South,188,5.0,6.0,72,0.00,,SKC,0.00,VWS V14.01,2013-08-12 03:43:00,
2013-08-11 22:49:00,76.7,67.4,29.95,South,190,4.0,12.0,73,0.00,,SKC,0.00,VWS V14.01,2013-08-12 03:49:00,
2013-08-11 22:54:00,76.6,67.3,29.96,SSW,197,7.0,7.0,73,0.00,,SKC,0.00,VWS V14.01,2013-08-12 03:54:00,
2013-08-11 22:59:00,76.5,67.2,29.96,South,180,5.0,6.0,73,0.00,,SKC,0.00,VWS V14.01,2013-08-12 03:59:00,
2013-08-11 23:01:00,76.5,67.6,29.96,SSE,160,7.0,7.0,74,0.00,,SKC,0.00,VWS V14.01,2013-08-12 04:01:00,
2013-08-11 23:02:00,76.5,67.6,29.96,South,188,6.0,7.0,74,0.00,,SKC,0.00,VWS V14.01,2013-08-12 04:02:00,
2013-08-11 23:04:00,76.4,67.5,29.96,South,186,3.0,5.0,74,0.00,,SKC,0.00,VWS V14.01,2013-08-12 04:04:00,
2013-08-11 23:09:00,76.2,67.3,29.96,South,179,2.0,3.0,74,0.00,,SKC,0.00,VWS V14.01,2013-08-12 04:09:00,
2013-08-11 23:14:00,76.2,67.3,29.96,South,188,1.0,1.0,74,0.00,,SKC,0.00,VWS V14.01,2013-08-12 04:14:00,
2013-08-11 23:19:00,76.1,67.2,29.96,South,181,2.0,2.0,74,0.00,,SKC,0.00,VWS V14.01,2013-08-12 04:19:00,
2013-08-11 23:24:00,76.0,67.1,29.96,South,184,4.0,5.0,74,0.00,,SKC,0.00,VWS V14.01,2013-08-12 04:24:00,
2013-08-11 23:29:00,76.0,67.1,29.96,South,171,2.0,2.0,74,0.00,,SKC,0.00,VWS V14.01,2013-08-12 04:29:00,
2013-08-11 23:34:00,75.8,67.3,29.96,South,186,10.0,10.0,75,0.00,,SKC,0.00,VWS V14.01,2013-08-12 04:34:00,
2013-08-11 23:39:00,75.7,67.2,29.96,South,179,2.0,3.0,75,0.00,,SKC,0.00,VWS V14.01,2013-08-12 04:39:00,
2013-08-11 23:44:00,75.6,67.1,29.96,South,176,1.0,2.0,75,0.00,,SKC,0.00,VWS V14.01,2013-08-12 04:44:00,
2013-08-11 23:49:00,75.5,67.0,29.96,South,173,3.0,3.0,75,0.00,,SKC,0.00,VWS V14.01,2013-08-12 04:49:00,
2013-08-11 23:54:00,75.4,67.3,29.96,South,175,1.0,2.0,76,0.00,,SKC,0.00,VWS V14.01,2013-08-12 04:54:00,
2013-08-11 23:59:00,75.2,67.1,29.96,South,175,3.0,3.0,76,0.00,,SKC,0.00,VWS V14.01,2013-08-12 04:59:00,